THORAD AGENA D DEB, 42500

Orbit data source: Space-Track

THORAD AGENA D DEB, 42500 is space debris in SSO originally from a launch on Wed, 08 Apr 1970 UTC launched from the Air Force Western Test Range (AFWTR). Debris objects in space refer to the collection of defunct objects orbiting the Earth. Examples of debris include non-operational satellites, rocket bodies, and fragments generated from explosions, collisions, or faulty payload assembly.

Loading next visibility...
Identifier
42500, 1970-025RE
Orbit
SSO
Country
Flag of USUS
Related business
Manufacturer
Unknown
Mission
Spacecraft
Bus & Motor
Unknown
Mass
Unknown
Launch date (UTC)
1970-04-08 (56 years ago)
Launch vehicle
Unknown
Launch site
Air Force Western Test Range (AFWTR)
Object type
Payload
Rocket body
Debris
Shape & HBR
Unknown shape, 0.1 m
Radar Cross Section
Small (<0.1 m²)

Expand to show TLE details & history
Last TLE update: 2 days ago

TLE from 2 days ago
0 THORAD AGENA D DEB
1 42500U 70025RE  26167.87620988  .00000067  00000-0  16137-3 0  9999
2 42500  99.4380  28.4906 0009282 243.7695 137.3921 13.54028624620843
Epoch: 2026-06-16T21:01Z
TLE epoch observation values (Epoch: 2026-06-16T21:01:44.533Z)
Latitude
20.94122°
Longitude
164.28458°
Altitude
1,065.037 km
Speed
7.319 km/s
True Right ascension
01h 39m 26s
True Declination
20° 49' 53"
Sunlit
Object was in daylight at epoch
Visualization orbit readout
Latitude
Unknown
Longitude
Unknown
Altitude
Unknown
Speed
Unknown
Apparent Right ascension
Unknown
Apparent Declination
Unknown
Sunlit
N/A
Visualization observer readout
Local Sidereal Time
08:52:03
Azimuth
Unknown
Elevation
Unknown
Doppler factor
Unknown
Orbital elements
Apogee altitude
1,061.655 km
Perigee altitude
1,047.857 km
Semi-major axis
7,432.893 km
Eccentricity
0.00093
Inclination
99.438°
RAAN
28.4906°
Arg. of periapsis
243.7695°
True anomaly
137.46404°
Mean anomaly
137.3921°
Eccentric anomaly
137.42808°
Mean motion
3.38693 °/min
Orbital period
106.29 mins
BSTAR
0.00016137
Loading maneuver chart data...
Computing Atmospheric mass density...

Documentation

Showing up to 5 results
|